Voltar ao catálogo

SL-19 DEB

AtivoUNKNOWN
NORAD 23491·DEBRIS·🇷🇺 Russia

Lançado Dec 26, 1994 de Baikonur Cosmodrome

Loading…

Próximas Passagens (próximas 24 horas)

TLE

AtualizadoSource: Space-Track

Época: Sep 11, 2026, 17:58 UTC

1 23491U 94085P   26254.74896897  .00003229  00000-0  72940-1 0  9991
2 23491  64.8108 264.8647 0367924 227.5669 310.2714 11.37512349313284

Acompanhe SL-19 DEB em tempo real com AllMySat

Download on the App Store